Retour au catalogue

SL-16 DEB

ActifLEO
NORAD 39911·DEBRIS·🇷🇺 Russia

Lancé Mar 26, 1993 depuis Baikonur Cosmodrome

Loading…

Prochains Passages (prochaines 24 heures)

TLE

FraisSource: Space-Track

Époque: Sep 14, 2026, 02:18 UTC

1 39911U 93016CM  26257.09646884  .00000197  00000-0  22314-3 0  9991
2 39911  71.0016 157.2878 0195677  89.3292 273.0225 13.73514651615487

Suivez SL-16 DEB en temps réel avec AllMySat

Download on the App Store